Starlink 32865

operational
NORAD ID: 62952 Int'l Des: 2025-029 Owner: SPXS Country: US Constellation: starlink
LEOCIRCULAR

About Starlink 32865

Description loading...

Live Position

Loading 3D Globe...

Upcoming Passes

Altitude History

Altitude vs Time

uPlot chart will show altitude changes over time

Two-Line Element Set

1 62952U 25029E 25259.20332316 .00025848 00000-0 88121-3 0 9995
2 62952 53.1588 322.8827 0001388 93.5931 266.5228 15.30221150 34613
Epoch: Sep 16, 2025 • Age: 46 hours

Current Status

Altitude 480.5 km
Velocity 7.63 km/s
Sub-Earth Point 53.30°N, 4.12°E
Launch Date Feb 11, 2025
Age 0.5 years
Type internet

Technical Details

Classification Payload
Mass 730.00 kg
Dry Mass 700.00 kg
Total Mass 730.00 kg
Length 0.30 m
Diameter 4.10 m
Span 29.00 m
Shape Box + pan
Manufacturer SPXS
Bus Type Starlink V2M
Phase Status In Orbit
Owner/State SPXS/US

Large Constellations

Loading constellations...